{"data":{"norad_id":48768,"epoch":"2026-09-19T17:34:50.061504Z","epoch_age_seconds":84472,"freshness":"FRESH","line1":"1 48768U 21045B   26262.73252386 -.00000045  00000+0 -15467-3 0  9995","line2":"2 48768  87.8991 240.3434 0001909  71.3581 288.7756 13.15548063256834","mean_motion":13.15548063,"eccentricity":0.0001909,"inclination_deg":87.8991,"raan_deg":240.3434,"arg_perigee_deg":71.3581,"mean_anomaly_deg":288.7756,"bstar":-0.00015467,"rev_number":25683,"period_min":109.46008287346,"perigee_km":1200.3256333717,"apogee_km":1203.2196428715,"semimajor_km":7579.9096381216,"source":"CELESTRAK","updated_at":"2026-09-20T09:00:44.614895Z"}}